Weather History for Drummond Island, MI

Change the Weather History Date:

Thursday, March 27, 2014

  Actual Average (KCIU) Record (KCIU)
Temperature  
Mean Temperature 24 °F -  
Max Temperature 34 °F 41 °F 53 °F (1981)
Min Temperature 14 °F 20 °F 7 °F (1979)
Degree Days  
Heating Degree Days 41    
Moisture  
Dew Point 25 °F    
Average Humidity 87    
Maximum Humidity 99    
Minimum Humidity 59    
Precipitation  
Precipitation 0.00 in - - ()
Sea Level Pressure  
Sea Level Pressure 29.83 in    
Wind  
Wind Speed 5 mph (SSE)    
Max Wind Speed 12 mph    
Max Gust Speed 17 mph    
Visibility 5 miles    
Events Snow    
Averages and records for this station are not official NWS values.
T = Trace of Precipitation, MM = Missing Value Source: NWS Daily Summary

Daily Weather History Graph

Daily Weather History Graph

Search for Another Location

Airport:

Trip Planner

Search our weather history database for the weather conditions in past years. The results will help you decide how hot, cold, wet, or windy it might be!

Date:

Astronomy

Mar. 27, 2014 Rise Set
Actual Time 7:24 AM EDT 7:56 PM EDT
Civil Twilight 6:54 AM EDT 8:26 PM EDT
Nautical Twilight 6:18 AM EDT 9:02 PM EDT
Astronomical Twilight 5:42 AM EDT 9:39 PM EDT
Moon 5:25 AM EDT (3/27) 4:33 PM EDT (3/27)
Length of Visible Light 13h 32m
Length of Day
12h 32m
Waning Crescent, 13% of the Moon is Illuminated
Mar 27
Waning Crescent
Mar 30
New
Apr 7
First Quarter
Apr 15
Full
Apr 22
Last Quarter

Hourly Weather History & Observations

Time (EDT) Temp. Windchill Dew Point Humidity Pressure Visibility Wind Dir Wind Speed Gust Speed Precip Events Conditions
12:14 AM 14.9 °F - 7.0 °F 71% 30.08 in 10.0 mi Calm Calm - N/A   Overcast
12:35 AM 15.8 °F - 8.4 °F 73% 30.08 in 10.0 mi Calm Calm - N/A   Overcast
12:55 AM 17.1 °F - 9.7 °F 73% 30.07 in 10.0 mi Calm Calm - N/A   Overcast
1:15 AM 19.4 °F - 11.8 °F 72% 30.06 in 10.0 mi Calm Calm - N/A   Overcast
1:35 AM 21.7 °F 17.0 °F 13.3 °F 70% 30.06 in 10.0 mi SSE 3.5 mph - N/A   Overcast
1:55 AM 23.9 °F 18.0 °F 14.0 °F 66% 30.05 in 10.0 mi South 4.6 mph - N/A   Overcast
2:15 AM 25.2 °F 18.3 °F 14.0 °F 63% 30.04 in 10.0 mi South 5.8 mph - N/A   Overcast
2:35 AM 26.2 °F 18.6 °F 13.6 °F 59% 30.03 in 10.0 mi South 6.9 mph - N/A   Overcast
2:55 AM 26.1 °F 20.5 °F 14.9 °F 63% 30.03 in 10.0 mi South 4.6 mph - N/A   Overcast
3:15 AM 25.7 °F 18.0 °F 14.9 °F 64% 30.02 in 10.0 mi SSE 6.9 mph - N/A   Overcast
3:35 AM 25.7 °F 16.4 °F 14.5 °F 63% 30.02 in 10.0 mi South 9.2 mph - N/A   Overcast
3:55 AM 25.0 °F 14.8 °F 18.1 °F 75% 30.01 in 1.8 mi SSE 10.4 mph - N/A Snow Light Snow
4:15 AM 24.1 °F 16.0 °F 20.1 °F 85% 30.00 in 3.0 mi SSE 6.9 mph - N/A Snow Light Snow
4:34 AM 24.3 °F 15.4 °F 20.3 °F 85% 29.99 in 2.5 mi SE 8.1 mph - N/A Snow Light Snow
4:55 AM 24.3 °F 15.4 °F 21.2 °F 88% 29.98 in 1.2 mi SSE 8.1 mph - N/A Snow Light Snow
5:15 AM 24.4 °F 15.6 °F 22.1 °F 91% 29.97 in 2.0 mi SSE 8.1 mph - N/A Snow Light Snow
5:34 AM 24.6 °F 15.1 °F 22.5 °F 91% 29.96 in 4.0 mi SSE 9.2 mph 16.1 mph N/A Snow Light Snow
5:55 AM 24.8 °F 14.6 °F 22.8 °F 92% 29.95 in 2.0 mi SSE 10.4 mph - N/A Snow Light Snow
6:15 AM 25.2 °F 15.1 °F 23.0 °F 91% 29.94 in 4.0 mi SSE 10.4 mph - N/A Snow Light Snow
6:34 AM 25.3 °F 16.0 °F 23.2 °F 91% 29.92 in 4.0 mi SSE 9.2 mph 17.3 mph N/A Snow Light Snow
6:55 AM 25.5 °F 15.5 °F 23.5 °F 92% 29.92 in 3.0 mi SSE 10.4 mph - N/A Snow Light Snow
7:14 AM 25.7 °F 15.1 °F 23.7 °F 92% 29.91 in 3.0 mi SSE 11.5 mph - N/A Snow Light Snow
7:35 AM 25.7 °F 17.1 °F 23.9 °F 93% 29.91 in 3.0 mi SSE 8.1 mph - N/A Snow Light Snow
7:55 AM 26.2 °F 17.1 °F 23.9 °F 91% 29.91 in 5.0 mi South 9.2 mph - N/A   Overcast
8:14 AM 26.4 °F 18.9 °F 24.3 °F 92% 29.90 in 2.5 mi South 6.9 mph - N/A Snow Light Snow
8:35 AM 26.6 °F 20.0 °F 24.8 °F 93% 29.90 in 2.0 mi SSE 5.8 mph - N/A Snow Light Snow
8:54 AM 27.0 °F 18.7 °F 25.3 °F 94% 29.89 in 1.0 mi SSE 8.1 mph - N/A Snow Light Snow
9:15 AM 27.5 °F 18.6 °F 25.7 °F 93% 29.89 in 1.0 mi SSE 9.2 mph - N/A Snow Light Snow
9:35 AM 27.7 °F 19.6 °F 26.1 °F 94% 29.87 in 0.8 mi South 8.1 mph - N/A Snow Light Snow
9:55 AM 28.0 °F 19.3 °F 26.1 °F 92% 29.87 in 0.8 mi South 9.2 mph - N/A Snow Light Snow
10:15 AM 28.2 °F 18.9 °F 26.1 °F 92% 29.87 in 1.0 mi South 10.4 mph 16.1 mph N/A Snow Light Snow
10:35 AM 28.0 °F 19.3 °F 25.7 °F 91% 29.86 in 0.8 mi SSE 9.2 mph - N/A Snow Light Snow
10:55 AM 28.0 °F 20.0 °F 25.7 °F 91% 29.86 in 1.5 mi SSE 8.1 mph - N/A Snow Light Snow
11:15 AM 28.2 °F 20.2 °F 25.5 °F 90% 29.84 in 1.5 mi SSE 8.1 mph - N/A Snow Light Snow
11:34 AM 28.4 °F 20.4 °F 25.7 °F 90% 29.83 in 1.0 mi SSE 8.1 mph - N/A Snow Light Snow
11:55 AM 28.6 °F 19.9 °F 25.9 °F 90% 29.83 in 1.2 mi SSE 9.2 mph - N/A Snow Light Snow
12:15 PM 29.1 °F 22.1 °F 26.1 °F 88% 29.82 in 2.5 mi SSE 6.9 mph - N/A Snow Light Snow
12:34 PM 29.3 °F 21.5 °F 26.4 °F 89% 29.82 in 2.0 mi SSE 8.1 mph - N/A Snow Light Snow
12:55 PM 29.8 °F 23.0 °F 27.3 °F 90% 29.81 in 1.5 mi SSE 6.9 mph - N/A Snow Light Snow
1:15 PM 30.2 °F 23.4 °F 27.5 °F 90% 29.81 in 1.5 mi SE 6.9 mph - N/A Snow Light Snow
1:35 PM 30.0 °F 24.1 °F 27.5 °F 90% 29.80 in 1.2 mi SE 5.8 mph - N/A Snow Light Snow
1:55 PM 30.0 °F 23.2 °F 27.5 °F 90% 29.78 in 1.5 mi SE 6.9 mph - N/A Snow Light Snow
2:15 PM 30.6 °F 25.8 °F 27.9 °F 90% 29.77 in 1.8 mi SE 4.6 mph - N/A Snow Light Snow
2:35 PM 30.7 °F 24.9 °F 27.9 °F 89% 29.77 in 2.0 mi SE 5.8 mph - N/A Snow Light Snow
2:55 PM 30.7 °F 26.0 °F 27.9 °F 89% 29.76 in 3.0 mi SE 4.6 mph - N/A Snow Light Snow
3:15 PM 31.1 °F 25.4 °F 28.0 °F 88% 29.75 in 4.0 mi ESE 5.8 mph - N/A Snow Light Snow
3:35 PM 31.3 °F 26.6 °F 28.4 °F 89% 29.75 in 5.0 mi ESE 4.6 mph - N/A   Overcast
3:55 PM 32.0 °F 27.5 °F 28.2 °F 86% 29.74 in 7.0 mi SE 4.6 mph - N/A   Overcast
4:15 PM 32.4 °F 27.9 °F 28.8 °F 87% 29.73 in 10.0 mi SE 4.6 mph - N/A   Overcast
4:35 PM 33.4 °F 29.1 °F 29.3 °F 85% 29.73 in 10.0 mi SE 4.6 mph - N/A   Overcast
4:55 PM 33.8 °F 30.8 °F 30.2 °F 87% 29.72 in 10.0 mi SSE 3.5 mph - N/A   Overcast
5:15 PM 34.3 °F 30.2 °F 30.6 °F 86% 29.71 in 10.0 mi SSE 4.6 mph - N/A   Overcast
5:35 PM 34.3 °F 29.2 °F 30.7 °F 87% 29.71 in 10.0 mi SSE 5.8 mph - N/A   Overcast
5:55 PM 34.3 °F 29.2 °F 30.9 °F 87% 29.71 in 10.0 mi SSE 5.8 mph - N/A   Overcast
6:14 PM 34.3 °F 28.4 °F 30.9 °F 87% 29.71 in 10.0 mi SSE 6.9 mph - N/A   Overcast
6:35 PM 34.0 °F 28.0 °F 31.1 °F 89% 29.70 in 10.0 mi SSE 6.9 mph - N/A   Overcast
6:55 PM 34.0 °F 28.0 °F 31.1 °F 89% 29.69 in 10.0 mi SSE 6.9 mph - N/A   Overcast
7:14 PM 33.8 °F 27.7 °F 31.1 °F 90% 29.68 in 10.0 mi SE 6.9 mph - N/A   Overcast
7:35 PM 33.8 °F 28.6 °F 31.1 °F 90% 29.69 in 10.0 mi SSE 5.8 mph - N/A   Overcast
7:54 PM 33.8 °F 28.6 °F 31.1 °F 90% 29.69 in 10.0 mi SSE 5.8 mph - N/A   Overcast
8:15 PM 33.8 °F 27.7 °F 31.1 °F 90% 29.67 in 10.0 mi SSE 6.9 mph - N/A   Overcast
8:35 PM 33.1 °F 26.1 °F 31.1 °F 92% 29.65 in 7.0 mi SE 8.1 mph - N/A   Overcast
8:55 PM 32.9 °F 26.7 °F 31.3 °F 94% 29.67 in 7.0 mi SSE 6.9 mph - N/A   Overcast
9:15 PM 32.9 °F 28.5 °F 31.6 °F 95% 29.65 in 3.0 mi SE 4.6 mph - N/A Snow Light Snow
9:35 PM 32.5 °F 26.2 °F 31.8 °F 97% 29.65 in 1.8 mi SE 6.9 mph - N/A Snow Light Snow
9:55 PM 32.5 °F 27.1 °F 32.0 °F 98% 29.64 in 1.5 mi SE 5.8 mph - N/A Snow Light Snow
10:15 PM 32.4 °F 26.9 °F 32.0 °F 99% 29.63 in 1.2 mi SE 5.8 mph - N/A Snow Light Snow
10:35 PM 32.4 °F 29.1 °F 32.0 °F 99% 29.62 in 1.5 mi SE 3.5 mph - N/A Snow Light Snow
10:55 PM 32.4 °F 27.9 °F 32.0 °F 99% 29.61 in 1.5 mi SE 4.6 mph - N/A Snow Light Snow
11:15 PM 32.2 °F 26.7 °F 32.0 °F 99% 29.61 in 2.0 mi SE 5.8 mph - N/A Snow Light Snow
11:34 PM 32.2 °F 26.7 °F 32.0 °F 99% 29.60 in 3.0 mi SE 5.8 mph - N/A   Overcast
11:55 PM 32.2 °F 26.7 °F 32.0 °F 99% 29.59 in 2.0 mi SE 5.8 mph - N/A   Overcast